AAL3199 KOKC-KDFW

Flight info

Callsign AAL3199
Flight time 0h 33m
Altitude 23000
Route MUDDE3 MUDDE RBUKL VKTRY2
Aircraft A319/M-SDE3FGHIRWY/LB1

Departure

Time 2026-05-09 02:53
Airport OKC Will Rogers World Airport (KOKC)

Arrival

Time 2026-05-09 03:26
Airport Dallas Fort Worth International Airport (KDFW)
Time Latitude Longitude Altitude Speed Heading
2026-05-09 02:15 35.39481 -97.59888 1297 ft 0 kts 31°
2026-05-09 02:46 35.39462 -97.59902 1297 ft 4 kts 29°
2026-05-09 02:46 35.39443 -97.59915 1297 ft 3 kts 29°
2026-05-09 02:46 35.39423 -97.59922 1296 ft 4 kts 321°
2026-05-09 02:46 35.39417 -97.59899 1296 ft 4 kts 270°
2026-05-09 02:47 35.39417 -97.59890 1296 ft 0 kts 270°
2026-05-09 02:49 35.39417 -97.59907 1296 ft 6 kts 270°
2026-05-09 02:49 35.39419 -97.59987 1295 ft 11 kts 280°
2026-05-09 02:49 35.39426 -97.60095 1292 ft 14 kts 285°
2026-05-09 02:50 35.39502 -97.60195 1290 ft 18 kts 317°
2026-05-09 02:50 35.39606 -97.60312 1290 ft 22 kts 316°
2026-05-09 02:50 35.39733 -97.60401 1288 ft 22 kts 358°
2026-05-09 02:50 35.39887 -97.60400 1290 ft 22 kts 359°
2026-05-09 02:51 35.40049 -97.60402 1293 ft 25 kts 359°
2026-05-09 02:51 35.40221 -97.60407 1296 ft 25 kts 358°
2026-05-09 02:51 35.40396 -97.60407 1297 ft 26 kts
2026-05-09 02:51 35.40557 -97.60414 1297 ft 19 kts 340°
2026-05-09 02:52 35.40580 -97.60547 1298 ft 13 kts 267°
2026-05-09 02:52 35.40527 -97.60573 1297 ft 1 kts 178°
2026-05-09 02:52 35.40481 -97.60572 1297 ft 34 kts 179°
2026-05-09 02:52 35.39965 -97.60570 1290 ft 111 kts 180°
2026-05-09 02:53 35.38988 -97.60568 1324 ft 164 kts 180°
2026-05-09 02:53 35.37835 -97.60553 1941 ft 167 kts 178°
2026-05-09 02:53 35.36663 -97.60458 2644 ft 170 kts 172°
2026-05-09 02:53 35.35481 -97.60208 3248 ft 179 kts 169°
2026-05-09 02:54 35.34168 -97.59942 3632 ft 203 kts 172°
2026-05-09 02:54 35.32687 -97.59731 4007 ft 226 kts 174°
2026-05-09 02:54 35.31053 -97.59530 4448 ft 249 kts 175°
2026-05-09 02:54 35.29241 -97.59320 4975 ft 272 kts 176°
2026-05-09 02:55 35.27317 -97.59096 5799 ft 282 kts 176°
2026-05-09 02:55 35.25338 -97.58860 6714 ft 289 kts 176°
2026-05-09 02:55 35.23317 -97.58618 7643 ft 295 kts 176°
2026-05-09 02:55 35.21257 -97.58373 8549 ft 299 kts 177°
2026-05-09 02:56 35.19170 -97.58122 9464 ft 304 kts 177°
2026-05-09 02:56 35.17050 -97.57867 10285 ft 312 kts 178°
2026-05-09 02:56 35.14806 -97.57601 10709 ft 333 kts 179°
2026-05-09 02:56 35.12478 -97.57320 11500 ft 339 kts 179°
2026-05-09 02:57 35.10122 -97.57034 12394 ft 341 kts 180°
2026-05-09 02:57 35.07750 -97.56745 13302 ft 343 kts 181°
2026-05-09 02:57 35.05360 -97.56455 14082 ft 348 kts 181°
2026-05-09 02:57 35.02972 -97.56167 14839 ft 352 kts 181°
2026-05-09 02:58 35.00518 -97.55870 15573 ft 357 kts 181°
2026-05-09 02:58 34.98033 -97.55542 16310 ft 361 kts 180°
2026-05-09 02:58 34.95519 -97.55183 16997 ft 366 kts 180°
2026-05-09 02:58 34.92982 -97.54911 17672 ft 366 kts 186°
2026-05-09 02:59 34.90432 -97.54989 18325 ft 368 kts 189°
2026-05-09 02:59 34.87862 -97.55106 18958 ft 372 kts 189°
2026-05-09 02:59 34.85253 -97.55235 19569 ft 378 kts 189°
2026-05-09 02:59 34.82608 -97.55371 20149 ft 383 kts 189°
2026-05-09 03:00 34.79928 -97.55510 20713 ft 389 kts 189°
2026-05-09 03:00 34.77209 -97.55652 21298 ft 393 kts 189°
2026-05-09 03:00 34.74457 -97.55798 21838 ft 399 kts 189°
2026-05-09 03:00 34.71670 -97.55945 22405 ft 403 kts 188°
2026-05-09 03:01 34.68845 -97.56089 22792 ft 408 kts 188°
2026-05-09 03:01 34.66001 -97.56226 22903 ft 407 kts 188°
2026-05-09 03:01 34.63225 -97.56350 22925 ft 392 kts 188°
2026-05-09 03:01 34.60526 -97.56466 22925 ft 386 kts 188°
2026-05-09 03:02 34.57849 -97.56586 22925 ft 384 kts 188°
2026-05-09 03:02 34.55176 -97.56715 22916 ft 384 kts 188°
2026-05-09 03:02 34.52506 -97.56850 22916 ft 384 kts 188°
2026-05-09 03:02 34.49840 -97.56992 22916 ft 384 kts 188°
2026-05-09 03:03 34.47169 -97.57137 22920 ft 384 kts 188°
2026-05-09 03:03 34.44505 -97.57276 22923 ft 384 kts 188°
2026-05-09 03:03 34.41833 -97.57408 22915 ft 384 kts 188°
2026-05-09 03:03 34.39160 -97.57538 22920 ft 384 kts 188°
2026-05-09 03:04 34.36490 -97.57667 22919 ft 384 kts 188°
2026-05-09 03:04 34.33816 -97.57799 22905 ft 384 kts 188°
2026-05-09 03:04 34.31142 -97.57932 22917 ft 384 kts 188°
2026-05-09 03:04 34.28472 -97.58068 22916 ft 384 kts 188°
2026-05-09 03:05 34.25800 -97.58201 22915 ft 384 kts 188°
2026-05-09 03:05 34.23163 -97.58331 22916 ft 384 kts 188°
2026-05-09 03:05 34.20494 -97.58457 22913 ft 384 kts 188°
2026-05-09 03:05 34.17787 -97.58585 22909 ft 384 kts 188°
2026-05-09 03:06 34.15116 -97.58716 22901 ft 384 kts 188°
2026-05-09 03:06 34.12448 -97.58850 22920 ft 384 kts 188°
2026-05-09 03:06 34.09777 -97.58983 22901 ft 384 kts 188°
2026-05-09 03:06 34.07125 -97.59110 22678 ft 379 kts 188°
2026-05-09 03:07 34.04547 -97.59230 22367 ft 374 kts 188°
2026-05-09 03:07 34.01951 -97.59354 21911 ft 373 kts 188°
2026-05-09 03:07 33.99326 -97.59481 21446 ft 373 kts 188°
2026-05-09 03:07 33.96778 -97.59603 20995 ft 372 kts 188°
2026-05-09 03:08 33.94192 -97.59727 20540 ft 371 kts 188°
2026-05-09 03:08 33.91614 -97.59851 20085 ft 370 kts 188°
2026-05-09 03:08 33.89046 -97.59978 19636 ft 369 kts 188°
2026-05-09 03:08 33.86485 -97.60122 19195 ft 367 kts 189°
2026-05-09 03:09 33.83944 -97.60316 18752 ft 365 kts 190°
2026-05-09 03:09 33.81415 -97.60540 18311 ft 364 kts 190°
2026-05-09 03:09 33.78897 -97.60769 17868 ft 362 kts 190°
2026-05-09 03:09 33.76389 -97.60994 17438 ft 361 kts 190°
2026-05-09 03:10 33.73899 -97.61212 17111 ft 355 kts 189°
2026-05-09 03:10 33.71440 -97.61421 16710 ft 353 kts 189°
2026-05-09 03:10 33.68996 -97.61626 16301 ft 352 kts 189°
2026-05-09 03:10 33.66558 -97.61829 15885 ft 350 kts 188°
2026-05-09 03:11 33.64132 -97.62031 15478 ft 349 kts 188°
2026-05-09 03:11 33.61713 -97.62234 15069 ft 347 kts 188°
2026-05-09 03:11 33.59305 -97.62437 14662 ft 346 kts 188°
2026-05-09 03:11 33.56906 -97.62638 14260 ft 345 kts 188°
2026-05-09 03:12 33.54511 -97.62836 13844 ft 344 kts 188°
2026-05-09 03:12 33.52125 -97.63032 13429 ft 343 kts 188°
2026-05-09 03:12 33.49766 -97.63227 13020 ft 336 kts 188°
2026-05-09 03:12 33.47465 -97.63415 12629 ft 328 kts 188°
2026-05-09 03:13 33.42941 -97.63793 11826 ft 326 kts 188°
2026-05-09 03:13 33.40669 -97.63802 11437 ft 329 kts 174°
2026-05-09 03:13 33.38510 -97.62970 11306 ft 325 kts 155°
2026-05-09 03:14 33.36711 -97.61385 10899 ft 322 kts 134°
2026-05-09 03:14 33.35340 -97.59277 10351 ft 320 kts 127°
2026-05-09 03:14 33.34038 -97.57144 9841 ft 315 kts 127°
2026-05-09 03:14 33.32761 -97.55049 9380 ft 309 kts 127°
2026-05-09 03:15 33.31503 -97.52996 8993 ft 304 kts 128°
2026-05-09 03:15 33.30258 -97.50968 8606 ft 301 kts 128°
2026-05-09 03:15 33.29022 -97.48960 8231 ft 300 kts 128°
2026-05-09 03:15 33.27880 -97.46884 7838 ft 300 kts 117°
2026-05-09 03:16 33.27195 -97.44537 7465 ft 300 kts 102°
2026-05-09 03:16 33.26993 -97.42071 7095 ft 297 kts 94°
2026-05-09 03:16 33.26875 -97.39645 6724 ft 296 kts 94°
2026-05-09 03:16 33.26752 -97.37195 6354 ft 294 kts 94°
2026-05-09 03:17 33.26625 -97.34769 5995 ft 291 kts 94°
2026-05-09 03:17 33.26496 -97.32368 5632 ft 288 kts 95°
2026-05-09 03:17 33.26366 -97.29987 5305 ft 285 kts 94°
2026-05-09 03:17 33.26243 -97.27679 5186 ft 273 kts 94°
2026-05-09 03:18 33.26125 -97.25461 5012 ft 263 kts 94°
2026-05-09 03:18 33.25896 -97.23329 4818 ft 254 kts 108°
2026-05-09 03:18 33.25265 -97.21355 4678 ft 254 kts 112°
2026-05-09 03:18 33.24607 -97.19403 4562 ft 252 kts 113°
2026-05-09 03:19 33.23953 -97.17476 4430 ft 250 kts 113°
2026-05-09 03:19 33.23298 -97.15549 4300 ft 250 kts 112°
2026-05-09 03:19 33.22649 -97.13620 4173 ft 250 kts 112°
2026-05-09 03:19 33.22006 -97.11696 4047 ft 249 kts 112°
2026-05-09 03:20 33.21368 -97.09788 3935 ft 247 kts 112°
2026-05-09 03:20 33.20934 -97.08504 4022 ft 247 kts 113°
2026-05-09 03:20 33.19985 -97.06806 4051 ft 249 kts 136°
2026-05-09 03:20 33.18511 -97.05664 4049 ft 261 kts 160°
2026-05-09 03:21 33.16775 -97.05316 3913 ft 249 kts 179°
2026-05-09 03:21 33.15032 -97.05330 3763 ft 255 kts 181°
2026-05-09 03:21 33.13261 -97.05354 3626 ft 258 kts 180°
2026-05-09 03:21 33.11485 -97.05364 3570 ft 247 kts 180°
2026-05-09 03:22 33.09823 -97.05371 3567 ft 232 kts 180°
2026-05-09 03:22 33.08258 -97.05379 3565 ft 218 kts 180°
2026-05-09 03:22 33.06783 -97.05387 3513 ft 207 kts 180°
2026-05-09 03:22 33.05368 -97.05394 3282 ft 200 kts 179°
2026-05-09 03:23 33.03993 -97.05401 3036 ft 196 kts 179°
2026-05-09 03:23 33.02644 -97.05408 2782 ft 193 kts 179°
2026-05-09 03:23 33.01313 -97.05414 2530 ft 189 kts 179°
2026-05-09 03:23 33.00008 -97.05421 2283 ft 186 kts 179°
2026-05-09 03:24 32.98750 -97.05428 2042 ft 174 kts 179°
2026-05-09 03:24 32.97581 -97.05435 1821 ft 163 kts 179°
2026-05-09 03:24 32.96476 -97.05440 1618 ft 155 kts 179°
2026-05-09 03:24 32.95422 -97.05446 1407 ft 148 kts 179°
2026-05-09 03:25 32.94418 -97.05451 1214 ft 141 kts 179°
2026-05-09 03:25 32.93451 -97.05456 1020 ft 137 kts 179°
2026-05-09 03:25 32.92507 -97.05452 843 ft 136 kts 179°
2026-05-09 03:25 32.91564 -97.05464 670 ft 135 kts 179°
2026-05-09 03:26 32.90665 -97.05460 620 ft 113 kts 180°
2026-05-09 03:26 32.90051 -97.05467 603 ft 64 kts 180°
2026-05-09 03:26 32.89709 -97.05466 605 ft 38 kts 175°
2026-05-09 03:26 32.89510 -97.05361 608 ft 27 kts 149°
2026-05-09 03:27 32.89404 -97.05255 598 ft 18 kts 108°
2026-05-09 03:27 32.89401 -97.05095 598 ft 20 kts 90°
2026-05-09 03:27 32.89405 -97.04925 599 ft 18 kts 71°
2026-05-09 03:27 32.89529 -97.04887 598 ft 24 kts 360°
2026-05-09 03:28 32.89700 -97.04888 600 ft 25 kts 360°
2026-05-09 03:28 32.89885 -97.04888 601 ft 33 kts 360°
2026-05-09 03:28 32.90145 -97.04887 599 ft 38 kts
2026-05-09 03:28 32.90329 -97.04870 599 ft 15 kts 39°
2026-05-09 03:29 32.90336 -97.04697 596 ft 29 kts 93°
2026-05-09 03:29 32.90295 -97.04593 596 ft 14 kts 157°
2026-05-09 03:29 32.90232 -97.04519 596 ft 10 kts 80°
2026-05-09 03:29 32.90265 -97.04482 596 ft 1 kts 45°
2026-05-09 03:30 32.90269 -97.04477 596 ft 0 kts 44°